Location: Acequia del Cap
(41.7000°N, 0.6167°E)
Time: 16:38:37
(UTC+00:00)

CZ-2C R/B - Pass Details

Date: 07 August 2020
Orbit: 501 x 568 km, 97.7° (Epoch: 23 September)

Event Time Altitude Azimuth Distance (km) Brightness Sun altitude
Rises 03:21:32 0° 13° (NNE) 2,712 7.3 -16.2°
Reaches altitude 10° 03:23:41 10° 15° (NNE) 1,803 6.3 -15.8°
Maximum altitude 03:27:35 80° 102° (ESE) 542 2.8 -15.3°
Enters shadow 03:30:16 19° 188° (S) 1,300 4.3 -14.9°
